Regional Weather Roundup
Issued by NWS

Home | Current Version | Previous Version | Text Only | Print | Product List | Glossary Off
Versions: 1 2 3 4 5 6 7 8 9 10 11 12 13 14 15 16 17 18 19 20 21 22 23 24 25 26 27 28 29 30 31 32 33 34 35 36 37 38 39 40 41 42 43 44 45 46 47 48 49 50

000
ASUS43 KLMK 300410
RWRKY
KENTUCKY REGIONAL WEATHER ROUNDUP
NATIONAL WEATHER SERVICE LOUISVILLE KY
1200 AM EDT SAT AUG 30 2014

NOTE "FAIR" INDICATES FEW OR NO CLOUDS BELOW 12,000 FEET
WITH NO SIGNIFICANT WEATHER AND/OR OBSTRUCTIONS TO VISIBILITY.

KYZ001>023-026-027-061>063-070>075-300500-
WESTERN AND SOUTH CENTRAL KENTUCKY

CITY           SKY/WX    TMP DP  RH WIND       PRES   REMARKS
PADUCAH        CLOUDY    80  68  66 W18G31    30.02R
HENDERSON      CLEAR     73  64  73 S6        29.99R
OWENSBORO      NOT AVBL
HOPKINSVILLE   PTCLDY    78  65  63 SE6       30.02S
BOWLING GREEN  CLEAR     76  64  66 S6        30.04R
GLASGOW        CLEAR     69  65  85 CALM      30.05R
$$

KYZ024-025-028>034-038-045-046-053-300500-
NORTH CENTRAL KENTUCKY

CITY           SKY/WX    TMP DP  RH WIND       PRES   REMARKS
LOUISVILLE/SDF PTCLDY    77  65  66 SE7       30.02R
LOUISVILLE/LOU CLEAR     78  63  59 S3        30.03R
FORT KNOX      CLEAR     70  66  88 S3        30.03R
$$

KYZ035>037-039>044-047>052-055>060-089>105-300500-
NORTHEAST KENTUCKY

CITY           SKY/WX    TMP DP  RH WIND       PRES   REMARKS
LEXINGTON      PTCLDY    76  71  85 SE6       30.07R
COVINGTON      PTCLDY    75  69  81 S5        30.04R
FRANKFORT      PTCLDY    71  66  84 CALM      30.05R
$$

KYZ054-064>069-076>088-106>120-300500-
SOUTHEAST KENTUCKY

CITY           SKY/WX    TMP DP  RH WIND       PRES   REMARKS
JACKSON        MOCLDY    74  67  78 E3        30.11R
LONDON         CLEAR     74  71  91 CALM      30.10S
SOMERSET       CLEAR     70  70 100 CALM      30.10R
MIDDLESBORO    CLEAR     71  66  85 CALM      30.13R
MONTICELLO     CLEAR     68  67  96 CALM      30.11R
$$



USA.gov is the U.S. government's official web portal to all federal, state and local government web resources and services.